STARLINK-32279, 61003

Orbit data source: Space-Track

STARLINK-32279, 61003 is a payload satellite owned by SpaceX/Seattle (US) in LEO that was launched on Thu, 05 Sep 2024 UTC via an FALCON 9 launch vehicle from the Air Force Eastern Test Range (AFETR). Payload-class satellites include a variety of spacecraft equipped with specific instruments for various scientific and technological missions. These include communications satellites like Starlink; space stations such as the ISS; scientific satellites like the Hubble; Earth observation satellites from companies like Planet Labs, Umbra, and HawkEye 360; GPS; miniature CubeSats for education and research; and military/defense satellites.

Loading next visibility...
Identifier
61003, 2024-158P
Orbit
LEO
Country
Flag of USUS
Related business
Manufacturer
SpaceX/Seattle
Mission
Operational Commercial Communications
Bus & Motor
STARLINK V2M, Unknown motor
Mass
730 kg wet, ~700 kg dry
Launch date (UTC)
2024-09-05 (1 year ago)
Launch vehicle
FALCON 9
Launch site
Air Force Eastern Test Range (AFETR)
Object type
Payload
Rocket body
Debris
Shape & HBR
Box + 2 Pan, 17.7 m
Radar Cross Section
33.884 m², Large (>1 m²)

Expand to show TLE details & history
Last TLE update: 1 day ago

TLE from 1 day ago
0 STARLINK-32279
1 61003U 24158P   25296.54872168  .00001725  00000-0  70363-4 0  9993
2 61003  53.1614 342.5888 0001295  73.5698 286.5445 15.30195482 64658
Epoch: 2025-10-23T13:10Z
TLE epoch observation values (Epoch: 2025-10-23T13:10:09.553Z)
Latitude
-0.00001°
Longitude
112.8426°
Altitude
475.876 km
Speed
7.629 km/s
True Right ascension
22h 50m 21s
True Declination
0° 00' 00"
Sunlit
Object was in full shadow at epoch
Visualization orbit readout
Latitude
Unknown
Longitude
Unknown
Altitude
Unknown
Speed
Unknown
Apparent Right ascension
Unknown
Apparent Declination
Unknown
Sunlit
N/A
Visualization observer readout
Local Sidereal Time
13:24:28
Azimuth
Unknown
Elevation
Unknown
Doppler factor
Unknown
Orbital elements
Apogee altitude
476.372 km
Perigee altitude
474.597 km
Semi-major axis
6,853.622 km
Eccentricity
0.00013
Inclination
53.1614°
RAAN
342.5888°
Arg. of periapsis
73.5698°
True anomaly
286.53027°
Mean anomaly
286.5445°
Eccentric anomaly
286.53739°
Mean motion
3.82528 °/min
Orbital period
94.11 mins
BSTAR
0.000070363
Loading maneuver chart data...
Computing Atmospheric mass density...
Loading historical data...
Loading historical data...
Loading historical data...
Loading historical data...
Loading historical data...
Loading historical data...
Loading historical data...

Documentation

Showing up to 5 results
|